Notices

What's New in latest Release from April 7th, 2021:

- Updated Glossary, including Speed of Maximum Gust, and Total Hourly Precipitation

- Updated national and regional climate services offices contacts and prices information

- Addition of station inventory lists for 1981-2010, 1971-2000, and 1961-1990 Normals.

If you haven't already, please take our survey and provide feedback about our website: https://eccc.sondage-survey.ca/f/LanguageSelection.aspx?s=442ca660-fcf1-47c0-95a9-59707d6fd709

Hourly Data Report for November 05, 2019

VICTORIA UNIVERSITY CS
BRITISH COLUMBIA
Current Station Operator: ECCC - MSC

48°27'25.200" N
123°18'16.600" W
60.10 m
1018598
71783
WYJ

Download Data

Hourly Data (November 2019)
Hourly Data Report for November 5, 2019
TIME
LST
Temp Definition
°C
Dew Point Definition
°C
Rel Hum Definition
%
Precip. Amount Definition
mm

Wind Dir Definition
10's deg

Wind Spd Definition
km/h
Visibility Definition
km
Stn Press Definition
kPa
Hmdx Definition


Wind Chill Definition


Weather Definition


00:00 9.5 7.9 90 0.0 26 3   101.59     LegendNANA
01:00 9.4 7.9 91 0.0 26 2   101.58     LegendNANA
02:00 9.3 7.9 90 0.0 26 1   101.58     LegendNANA
03:00 9.2 7.8 91 0.0 33 2   101.57     LegendNANA
04:00 8.9 7.9 93 0.0 22 1   101.57     LegendNANA
05:00 8.8 7.8 93 0.0 28 2   101.57     LegendNANA
06:00 8.8 7.7 93 0.0 31 1   101.56     LegendNANA
07:00 8.9 8.2 95 0.0 35 3   101.56     LegendNANA
08:00 9.4 8.6 95 0.0 32 4   101.59     LegendNANA
09:00 9.9 8.8 93 0.0 36 5   101.60     LegendNANA
10:00 10.3 8.6 90 0.0 1 6   101.60     LegendNANA
11:00 11.0 8.4 84 0.0 1 8   101.61     LegendNANA
12:00 10.9 8.5 85 0.0 3 5   101.60     LegendNANA
13:00 11.2 7.8 80 0.0 35 6   101.54     LegendNANA
14:00 11.0 7.2 78 0.0 33 8   101.55     LegendNANA
15:00 10.9 7.0 77 0.0 34 7   101.52     LegendNANA
16:00 10.6 7.2 79 0.0 36 3   101.51     LegendNANA
17:00 9.9 6.8 81 0.0 36 5   101.49     LegendNANA
18:00 9.8 6.8 82 0.0 2 5   101.51     LegendNANA
19:00 9.7 6.4 80 0.0 1 7   101.51     LegendNANA
20:00 8.8 6.3 84 0.0 36 5   101.55     LegendNANA
21:00 8.5 6.4 87 0.0 36 4   101.59     LegendNANA
22:00 7.8 6.5 92 0.0 35 5   101.62     LegendNANA
23:00 5.1 4.4 95 0.0 27 2   101.63     LegendNANA

Notes on Data Quality.

Legend

  • E = Estimated
  • M = Missing
  • NA = Not Available*
  • [empty] = Indicates an unobserved value
Date modified: